Weather History for Anderson, SC

Change the Weather History Date:

Thursday, February 13, 2014

  Actual Average Record
Temperature  
Mean Temperature 39 °F -  
Max Temperature 48 °F 54 °F 75 °F (1976)
Min Temperature 30 °F 33 °F 14 °F (1955)
Degree Days  
Heating Degree Days 26    
Moisture  
Dew Point 31 °F    
Average Humidity 87    
Maximum Humidity 100    
Minimum Humidity 52    
Precipitation  
Precipitation 0.04 in - - ()
Sea Level Pressure  
Sea Level Pressure 29.69 in    
Wind  
Wind Speed 7 mph (West)    
Max Wind Speed 17 mph    
Max Gust Speed 21 mph    
Visibility 7 miles    
Events Snow    
Averages and records for this station are not official NWS values.
T = Trace of Precipitation, MM = Missing Value Source: NWS Daily Summary

Daily Weather History Graph

Daily Weather History Graph

Search for Another Location

Airport:

Trip Planner

Search our weather history database for the weather conditions in past years. The results will help you decide how hot, cold, wet, or windy it might be!

Date:

Astronomy

Feb. 13, 2014 Rise Set
Actual Time 7:18 AM EST 6:12 PM EST
Civil Twilight 6:52 AM EST 6:38 PM EST
Nautical Twilight 6:22 AM EST 7:07 PM EST
Astronomical Twilight 5:53 AM EST 7:37 PM EST
Moon 5:19 PM EST (2/13) 6:10 AM EST (2/13)
Length of Visible Light 11h 45m
Length of Day
10h 54m
Waxing Gibbous, 98% of the Moon is Illuminated
Feb 13
Waxing Gibbous
Feb 14
Full
Feb 22
Last Quarter
Mar 1
New
Mar 8
First Quarter

Hourly Weather History & Observations

Time (EST) Temp. Windchill Dew Point Humidity Pressure Visibility Wind Dir Wind Speed Gust Speed Precip Events Conditions
12:09 AM 30.2 °F 20.8 °F 26.6 °F 86% 29.78 in 10.0 mi NNE 11.5 mph - N/A   Overcast
12:56 AM 30.0 °F 19.5 °F 28.0 °F 92% 29.78 in 10.0 mi NE 13.8 mph 19.6 mph N/A   Overcast
1:56 AM 30.9 °F 21.2 °F 28.0 °F 89% 29.73 in 10.0 mi NE 12.7 mph - 0.00 in   Overcast
2:56 AM 30.9 °F 24.3 °F 28.9 °F 92% 29.72 in 10.0 mi NE 6.9 mph - N/A   Overcast
3:56 AM 32.0 °F 26.4 °F 28.9 °F 88% 29.70 in 8.0 mi North 5.8 mph - 0.00 in Snow Light Snow
4:16 AM 32.0 °F 28.7 °F 30.2 °F 93% 29.68 in 7.0 mi Variable 3.5 mph - 0.00 in Snow Light Snow
4:29 AM 32.0 °F - 30.2 °F 93% 29.68 in 5.0 mi Calm Calm - 0.00 in Snow Light Snow
4:42 AM 32.0 °F 28.7 °F 30.2 °F 93% 29.67 in 2.5 mi North 3.5 mph - 0.01 in Snow Light Snow
4:56 AM 30.9 °F - 30.9 °F 100% 29.68 in 2.0 mi Calm Calm - 0.01 in Snow Light Snow
5:06 AM 30.2 °F 26.7 °F 30.2 °F 100% 29.67 in 2.0 mi West 3.5 mph - 0.00 in Snow Light Snow
5:15 AM 30.2 °F 26.7 °F 30.2 °F 100% 29.66 in 2.0 mi West 3.5 mph - 0.00 in Snow Light Snow
5:23 AM 30.2 °F - 30.2 °F 100% 29.66 in 2.0 mi Calm Calm - 0.01 in Snow Light Snow
5:30 AM 30.2 °F 26.7 °F 30.2 °F 100% 29.66 in 1.2 mi NW 3.5 mph - 0.01 in Snow Light Snow
5:39 AM 30.2 °F 26.7 °F 30.2 °F 100% 29.66 in 1.0 mi WNW 3.5 mph - 0.02 in Snow Light Snow
5:56 AM 30.9 °F 26.2 °F 30.9 °F 100% 29.68 in 3.0 mi West 4.6 mph - 0.02 in Snow Light Snow
6:03 AM 30.2 °F 25.4 °F 30.2 °F 100% 29.67 in 5.0 mi West 4.6 mph - 0.00 in Snow Light Snow
6:10 AM 30.2 °F 25.4 °F 30.2 °F 100% 29.66 in 6.0 mi NW 4.6 mph - 0.00 in Snow Light Snow
6:18 AM 32.0 °F 27.5 °F 30.2 °F 93% 29.66 in 6.0 mi NW 4.6 mph - 0.00 in Snow Light Snow
6:26 AM 32.0 °F 27.5 °F 32.0 °F 100% 29.67 in 7.0 mi WNW 4.6 mph - 0.00 in Snow Light Snow
6:56 AM 32.0 °F 27.5 °F 32.0 °F 100% 29.69 in 10.0 mi West 4.6 mph - 0.00 in   Overcast
7:25 AM 32.0 °F 28.7 °F 32.0 °F 100% 29.67 in 9.0 mi West 3.5 mph - N/A   Overcast
7:36 AM 32.0 °F - 32.0 °F 100% 29.67 in 10.0 mi Calm Calm - N/A   Overcast
7:56 AM 32.0 °F 28.7 °F 30.9 °F 96% 29.68 in 9.0 mi SW 3.5 mph - N/A   Overcast
8:20 AM 33.8 °F 26.4 °F 32.0 °F 93% 29.66 in 5.0 mi West 9.2 mph - 0.00 in Snow Light Snow
8:31 AM 33.8 °F 27.7 °F 32.0 °F 93% 29.66 in 3.0 mi WSW 6.9 mph - 0.01 in Snow Light Snow
8:54 AM 33.8 °F 27.0 °F 32.0 °F 93% 29.66 in 6.0 mi SW 8.1 mph - 0.01 in Snow Light Snow
8:56 AM 33.1 °F 26.9 °F 32.0 °F 96% 29.68 in 6.0 mi SW 6.9 mph - 0.01 in Snow Light Snow
9:23 AM 33.8 °F 27.7 °F 32.0 °F 93% 29.66 in 8.0 mi SW 6.9 mph - 0.00 in Snow Light Snow
9:34 AM 33.8 °F 27.0 °F 32.0 °F 93% 29.67 in 6.0 mi SW 8.1 mph - 0.00 in Snow Light Snow
9:44 AM 33.8 °F 27.7 °F 32.0 °F 93% 29.67 in 5.0 mi SW 6.9 mph - 0.00 in Snow Light Snow
9:56 AM 34.0 °F 27.2 °F 32.0 °F 92% 29.68 in 8.0 mi WSW 8.1 mph - 0.00 in   Overcast
10:56 AM 35.1 °F 28.6 °F 32.0 °F 89% 29.69 in 10.0 mi West 8.1 mph - 0.00 in   Mostly Cloudy
11:35 AM 35.6 °F 29.9 °F 33.8 °F 93% 29.67 in 10.0 mi West 6.9 mph - N/A   Overcast
11:56 AM 37.0 °F 32.4 °F 33.1 °F 86% 29.67 in 10.0 mi West 5.8 mph - N/A   Overcast
12:56 PM 39.9 °F 34.5 °F 33.1 °F 77% 29.67 in 10.0 mi West 8.1 mph - N/A   Overcast
1:56 PM 44.1 °F 38.1 °F 30.9 °F 60% 29.63 in 10.0 mi West 11.5 mph - N/A   Clear
2:56 PM 46.9 °F - 30.9 °F 54% 29.64 in 10.0 mi West 16.1 mph 20.7 mph N/A   Clear
3:56 PM 48.9 °F - 32.0 °F 52% 29.65 in 10.0 mi WNW 13.8 mph 18.4 mph N/A   Clear
4:56 PM 48.9 °F - 33.1 °F 54% 29.68 in 10.0 mi WNW 17.3 mph - N/A   Clear
5:56 PM 45.0 °F 40.1 °F 33.1 °F 63% 29.71 in 10.0 mi WNW 9.2 mph - N/A   Clear
6:56 PM 43.0 °F 37.2 °F 32.0 °F 65% 29.75 in 10.0 mi West 10.4 mph - N/A   Clear
7:56 PM 39.9 °F 32.5 °F 30.9 °F 70% 29.78 in 10.0 mi West 12.7 mph - N/A   Clear
8:56 PM 39.0 °F 32.8 °F 30.0 °F 70% 29.80 in 10.0 mi West 9.2 mph - N/A   Clear
9:56 PM 37.9 °F 30.9 °F 28.9 °F 70% 29.80 in 10.0 mi West 10.4 mph - N/A   Clear
10:56 PM 37.9 °F 30.9 °F 28.0 °F 68% 29.79 in 10.0 mi WSW 10.4 mph - N/A   Clear
11:56 PM 37.0 °F 30.4 °F 27.0 °F 67% 29.81 in 10.0 mi WSW 9.2 mph - N/A   Clear